STARLINK-38266, 100255

Orbit data source: Space-Track

STARLINK-38266, 100255 is a payload satellite owned by SpaceX/Seattle (US) in SSO that was launched on Sat, 08 Aug 2026 UTC launched from the Air Force Western Test Range (AFWTR). Payload-class satellites include a variety of spacecraft equipped with specific instruments for various scientific and technological missions. These include communications satellites like Starlink; space stations such as the ISS; scientific satellites like the Hubble; Earth observation satellites from companies like Planet Labs, Umbra, and HawkEye 360; GPS; miniature CubeSats for education and research; and military/defense satellites.

Not visible in the next 10 days
Identifier
100255, 2026-181K
Orbit
SSO
Country
Flag of USUS
Related business
Manufacturer
SpaceX/Seattle
Mission
Operational spacecraft
Bus & Motor
STARLINK V2MO, Unknown motor
Mass
575 kg wet, ~530 kg dry
Launch date (UTC)
2026-08-08 (1 month ago)
Launch vehicle
Unknown
Launch site
Air Force Western Test Range (AFWTR)
Object type
Payload
Rocket body
Debris
Shape & HBR
BOX + PAN, 17.7 m
Radar Cross Section
RCS unknown

Expand to show TLE details & history
Last TLE update: 6 hours ago

TLE from 6 hours ago
0 STARLINK-38266
1 A0255U 26181K   26249.63731581  .00164226  00000-0  10815-2 0  9995
2 A0255  97.2833 292.4808 0001028 105.1810 254.9569 15.75176915  5772
Epoch: 2026-09-06T15:17Z
TLE epoch observation values (Epoch: 2026-09-06T15:17:44.085Z)
Latitude
0.00001°
Longitude
77.31753°
Altitude
347.476 km
Speed
7.7 km/s
True Right ascension
19h 29m 55s
True Declination
0° 00' 00"
Sunlit
Object was in full shadow at epoch
Visualization orbit readout
Latitude
Unknown
Longitude
Unknown
Altitude
Unknown
Speed
Unknown
Apparent Right ascension
Unknown
Apparent Declination
Unknown
Sunlit
N/A
Visualization observer readout
Local Sidereal Time
13:33:02
Azimuth
Unknown
Elevation
Unknown
Doppler factor
Unknown
Orbital elements
Apogee altitude
341.706 km
Perigee altitude
340.324 km
Semi-major axis
6,719.152 km
Eccentricity
0.0001
Inclination
97.2833°
RAAN
292.4808°
Arg. of periapsis
105.181°
True anomaly
254.94552°
Mean anomaly
254.9569°
Eccentric anomaly
254.95121°
Mean motion
3.94068 °/min
Orbital period
91.35 mins
BSTAR
0.0010815
Loading maneuver chart data...
Computing Atmospheric mass density...
Loading historical data...
Loading historical data...
Loading historical data...
Loading historical data...
Loading historical data...
Loading historical data...
Loading historical data...

Documentation

Showing up to 5 results
|